Weather History for KAPF - December, 2014

Change the Weather History Date:

Wednesday, December 10, 2014

  Actual Average Record
Temperature  
Mean Temperature 57 °F 68 °F  
Max Temperature 65 °F 77 °F 88 °F (1986)
Min Temperature 49 °F 58 °F 39 °F (1974)
Degree Days  
Heating Degree Days 8 2  
Month to date heating degree days 14 15  
Since 1 July heating degree days 43 29  
Cooling Degree Days 0 5  
Month to date cooling degree days 59 50  
Year to date cooling degree days 4007 3869  
Growing Degree Days 6 (Base 50)    
Moisture  
Dew Point 43 °F    
Average Humidity 63    
Maximum Humidity 86    
Minimum Humidity 39    
Precipitation  
Precipitation 0.00 in 0.04 in 0.82 in (1977)
Month to date precipitation 0.04 0.46  
Year to date precipitation 50.45 50.90  
Snow  
Snow 0.00 in - - ()
Month to date snowfall 0.0  
Since 1 July snowfall 0.0  
Snow Depth 0.00 in    
Sea Level Pressure  
Sea Level Pressure 30.12 in    
Wind  
Wind Speed 6 mph (NNW)    
Max Wind Speed 16 mph    
Max Gust Speed 21 mph    
Visibility 10 miles    
Events      
T = Trace of Precipitation, MM = Missing Value Source: NWS Daily Summary

Daily Weather History Graph

Daily Weather History Graph

Search for Another Location

Airport or City:

Trip Planner

Search our weather history database for the weather conditions in past years. The results will help you decide how hot, cold, wet, or windy it might be!

Date:

Astronomy

Dec. 10, 2014 Rise Set
Actual Time 7:03 AM EST 5:36 PM EST
Civil Twilight 6:38 AM EST 6:01 PM EST
Nautical Twilight 6:09 AM EST 6:30 PM EST
Astronomical Twilight 5:41 AM EST 6:58 PM EST
Moon 9:34 PM EST (12/10) 10:06 AM EST (12/10)
Length of Visible Light 11h 22m
Length of Day
10h 32m
Waning Gibbous, 83% of the Moon is Illuminated
Dec 10
Waning Gibbous
Dec 14
Last Quarter
Dec 21
New
Dec 28
First Quarter
Jan 4
Full

Hourly Weather History & Observations

Time (EST) Temp. Dew Point Humidity Pressure Visibility Wind Dir Wind Speed Gust Speed Precip Events Conditions
12:53 AM 54.0 °F 46.0 °F 75% 30.10 in 10.0 mi North 10.4 mph - N/A   Clear
1:53 AM 54.0 °F 44.1 °F 69% 30.11 in 10.0 mi North 6.9 mph - N/A   Clear
2:53 AM 54.0 °F 42.1 °F 64% 30.10 in 10.0 mi North 10.4 mph - N/A   Clear
3:53 AM 52.0 °F 42.1 °F 69% 30.10 in 10.0 mi North 4.6 mph - N/A   Clear
4:53 AM 50.0 °F 42.1 °F 74% 30.09 in 10.0 mi NNW 3.5 mph - N/A   Clear
5:53 AM 50.0 °F 41.0 °F 71% 30.11 in 10.0 mi North 3.5 mph - N/A   Clear
6:53 AM 48.9 °F 41.0 °F 74% 30.13 in 10.0 mi North 4.6 mph - N/A   Clear
7:53 AM 51.1 °F 41.0 °F 68% 30.14 in 10.0 mi North 6.9 mph - N/A   Clear
8:53 AM 57.0 °F 37.0 °F 47% 30.16 in 10.0 mi North 8.1 mph - N/A   Clear
9:53 AM 61.0 °F 36.0 °F 39% 30.17 in 10.0 mi NNE 11.5 mph - N/A   Clear
10:53 AM 63.0 °F 37.9 °F 40% 30.17 in 10.0 mi North 11.5 mph 17.3 mph N/A   Clear
11:53 AM 64.0 °F 39.9 °F 41% 30.15 in 10.0 mi WNW 10.4 mph 20.7 mph N/A   Clear
12:53 PM 64.0 °F 42.1 °F 45% 30.13 in 10.0 mi NW 12.7 mph - N/A   Clear
1:53 PM 64.9 °F 44.1 °F 47% 30.11 in 10.0 mi WNW 12.7 mph - N/A   Clear
2:53 PM 64.9 °F 45.0 °F 48% 30.09 in 10.0 mi NW 10.4 mph 17.3 mph N/A   Clear
3:53 PM 64.0 °F 44.1 °F 48% 30.08 in 10.0 mi NW 8.1 mph - N/A   Clear
4:53 PM 63.0 °F 45.0 °F 52% 30.09 in 10.0 mi NW 6.9 mph - N/A   Clear
5:53 PM 60.1 °F 46.9 °F 62% 30.09 in 10.0 mi WNW 4.6 mph - N/A   Clear
6:53 PM 61.0 °F 46.9 °F 60% 30.10 in 10.0 mi NW 5.8 mph - N/A   Clear
7:53 PM 59.0 °F 46.9 °F 64% 30.12 in 10.0 mi Calm Calm - N/A   Clear
8:53 PM 54.0 °F 48.0 °F 80% 30.12 in 10.0 mi Calm Calm - N/A   Clear
9:53 PM 54.0 °F 48.9 °F 83% 30.12 in 10.0 mi Calm Calm - N/A   Clear
10:53 PM 50.0 °F 46.9 °F 89% 30.12 in 10.0 mi Calm Calm - N/A   Clear
11:53 PM 50.0 °F 48.0 °F 93% 30.12 in 10.0 mi Calm Calm - N/A   Clear